Spearfish, SD

1:48 PM MST on February 25, 2018 (GMT -0700)
Black Hills-Ice

Weather History for KSPF - November, 2012

Change the Weather History Date:

Saturday, November 24, 2012

  Actual Average (KEFC) Record (KEFC)
Temperature  
Mean Temperature 44 °F -  
Max Temperature 55 °F 46 °F 70 °F (1990)
Min Temperature 32 °F 19 °F -9 °F (1950)
Degree Days  
Heating Degree Days 22    
Moisture  
Dew Point 24 °F    
Average Humidity 49    
Maximum Humidity 81    
Minimum Humidity 23    
Precipitation  
Precipitation 0.00 in - - ()
Sea Level Pressure  
Sea Level Pressure 29.94 in    
Wind  
Wind Speed 5 mph (WNW)    
Max Wind Speed 20 mph    
Max Gust Speed 24 mph    
Visibility 10 miles    
Events Rain    
Averages and records for this station are not official NWS values.
T = Trace of Precipitation, MM = Missing Value Source: NWS Daily Summary

Daily Weather History Graph

Daily Weather History Graph

Search for Another Location

Airport or City:

Trip Planner

Search our weather history database for the weather conditions in past years. The results will help you decide how hot, cold, wet, or windy it might be!

Date:

Astronomy

Nov. 24, 2012 Rise Set
Actual Time 8:03 AM CST 5:19 PM CST
Civil Twilight 7:31 AM CST 5:52 PM CST
Nautical Twilight 6:55 AM CST 6:28 PM CST
Astronomical Twilight 6:20 AM CST 7:02 PM CST
Moon 3:11 PM CST (11/24) 4:16 AM CST (11/24)
Length of Visible Light 10h 20m
Length of Day
9h 16m
Waxing Gibbous, 87% of the Moon is Illuminated
Nov 24
Waxing Gibbous
Nov 28
Full
Dec 6
Last Quarter
Dec 13
New
Dec 19
First Quarter

Hourly Weather History & Observations

Time (CST) Temp. Windchill Dew Point Humidity Pressure Visibility Wind Dir Wind Speed Gust Speed Precip Events Conditions
12:15 AM 44.6 °F 40.7 °F 17.6 °F 34% 30.02 in 10.0 mi West 6.9 mph - N/A   Clear
12:35 AM 46.4 °F 43.5 °F 17.6 °F 32% 30.01 in 10.0 mi WNW 5.8 mph - N/A   Clear
12:55 AM 37.4 °F 33.8 °F 19.4 °F 48% 30.00 in 10.0 mi SE 4.6 mph - N/A   Clear
1:15 AM 39.2 °F - 17.6 °F 42% 29.99 in 10.0 mi Calm Calm - N/A   Clear
1:35 AM 37.4 °F - 19.4 °F 48% 29.98 in 10.0 mi Calm Calm - N/A   Clear
1:55 AM 39.2 °F 35.9 °F 17.6 °F 42% 29.98 in 10.0 mi ENE 4.6 mph - N/A   Clear
2:15 AM 37.4 °F - 17.6 °F 45% 29.99 in 10.0 mi Calm Calm - N/A   Clear
2:55 AM 35.6 °F 32.8 °F 21.2 °F 56% 29.98 in 10.0 mi SSW 3.5 mph - N/A   Clear
3:15 AM 32.0 °F 27.5 °F 21.2 °F 64% 29.98 in 10.0 mi SW 4.6 mph - N/A   Clear
3:35 AM 35.6 °F - 19.4 °F 52% 29.97 in 10.0 mi Calm Calm - N/A   Clear
3:55 AM 37.4 °F - 17.6 °F 45% 29.96 in 10.0 mi Calm Calm - N/A   Clear
4:15 AM 35.6 °F - 17.6 °F 48% 29.94 in 10.0 mi Calm Calm - N/A   Clear
4:55 AM 33.8 °F - 19.4 °F 56% 29.93 in 10.0 mi Calm Calm - N/A   Clear
5:15 AM 39.2 °F - 17.6 °F 42% 29.93 in 10.0 mi Calm Calm - N/A   Clear
5:35 AM 37.4 °F 34.9 °F 19.4 °F 48% 29.93 in 10.0 mi WSW 3.5 mph - N/A   Clear
5:55 AM 41.0 °F - 19.4 °F 42% 29.92 in 10.0 mi Calm Calm - N/A   Clear
6:15 AM 39.2 °F - 19.4 °F 45% 29.93 in 10.0 mi Calm Calm - N/A   Clear
6:35 AM 39.2 °F - 19.4 °F 45% 29.92 in 10.0 mi Calm Calm - N/A   Clear
6:55 AM 37.4 °F - 19.4 °F 48% 29.91 in 10.0 mi Calm Calm - N/A   Clear
7:15 AM 37.4 °F - 23.0 °F 56% 29.91 in 10.0 mi Calm Calm - N/A   Clear
7:35 AM 41.0 °F 38.0 °F 19.4 °F 42% 29.91 in 10.0 mi West 4.6 mph - N/A   Clear
7:55 AM 37.4 °F 31.4 °F 19.4 °F 48% 29.91 in 10.0 mi WSW 8.1 mph - N/A   Clear
8:15 AM 39.2 °F 35.0 °F 19.4 °F 45% 29.91 in 10.0 mi West 5.8 mph - N/A   Clear
8:35 AM 41.0 °F 37.1 °F 19.4 °F 42% 29.91 in 10.0 mi West 5.8 mph - N/A   Clear
8:55 AM 44.6 °F 42.2 °F 19.4 °F 37% 29.91 in 10.0 mi West 4.6 mph - N/A   Clear
9:15 AM 44.6 °F 42.2 °F 23.0 °F 43% 29.91 in 10.0 mi WSW 4.6 mph - N/A   Clear
9:35 AM 48.2 °F - 21.2 °F 34% 29.91 in 10.0 mi Calm Calm - N/A   Clear
9:55 AM 50.0 °F - 21.2 °F 32% 29.91 in 10.0 mi Calm Calm - N/A   Clear
10:15 AM 53.6 °F - 19.4 °F 26% 29.91 in 10.0 mi Calm Calm - N/A   Clear
10:35 AM 55.4 °F - 17.6 °F 23% 29.91 in 10.0 mi West 6.9 mph - N/A   Scattered Clouds
10:55 AM 55.4 °F - 17.6 °F 23% 29.91 in 10.0 mi WNW 9.2 mph - N/A   Partly Cloudy
11:15 AM 55.4 °F - 17.6 °F 23% 29.91 in 10.0 mi NW 10.4 mph - N/A   Partly Cloudy
11:35 AM 55.4 °F - 21.2 °F 26% 29.90 in 10.0 mi NW 12.7 mph 20.7 mph N/A   Mostly Cloudy
11:55 AM 53.6 °F - 23.0 °F 30% 29.90 in 10.0 mi NW 18.4 mph - N/A   Partly Cloudy
12:15 PM 55.4 °F - 23.0 °F 29% 29.90 in 10.0 mi NW 13.8 mph 24.2 mph N/A   Clear
12:35 PM 55.4 °F - 21.2 °F 26% 29.89 in 10.0 mi NW 16.1 mph 24.2 mph N/A   Clear
12:55 PM 51.8 °F - 19.4 °F 28% 29.90 in 10.0 mi NNW 19.6 mph 23.0 mph N/A   Clear
1:15 PM 50.0 °F - 19.4 °F 30% 29.90 in 10.0 mi NNW 13.8 mph - N/A   Clear
1:35 PM 50.0 °F - 21.2 °F 32% 29.90 in 10.0 mi NNW 16.1 mph - N/A   Clear
1:55 PM 50.0 °F - 21.2 °F 32% 29.90 in 10.0 mi NNW 12.7 mph - N/A   Clear
2:15 PM 50.0 °F - 21.2 °F 32% 29.90 in 10.0 mi NW 10.4 mph - N/A   Clear
2:35 PM 50.0 °F - 23.0 °F 35% 29.90 in 10.0 mi NW 10.4 mph - N/A   Clear
2:55 PM 48.2 °F - 24.8 °F 40% 29.90 in 10.0 mi NNW 8.1 mph - N/A   Partly Cloudy
3:15 PM 48.2 °F - 24.8 °F 40% 29.90 in 10.0 mi NNW 5.8 mph - N/A   Partly Cloudy
3:35 PM 48.2 °F - 24.8 °F 40% 29.90 in 10.0 mi NNW 10.4 mph - N/A   Mostly Cloudy
3:55 PM 48.2 °F - 24.8 °F 40% 29.91 in 10.0 mi NNW 5.8 mph - N/A   Overcast
4:15 PM 46.4 °F 43.5 °F 26.6 °F 46% 29.91 in 10.0 mi NW 5.8 mph - N/A   Mostly Cloudy
4:35 PM 44.6 °F 42.2 °F 26.6 °F 49% 29.92 in 10.0 mi NW 4.6 mph - N/A   Mostly Cloudy
4:55 PM 44.6 °F 42.2 °F 26.6 °F 49% 29.92 in 10.0 mi WNW 4.6 mph - N/A   Mostly Cloudy
5:15 PM 44.6 °F 42.2 °F 26.6 °F 49% 29.92 in 10.0 mi NW 4.6 mph - N/A   Overcast
5:35 PM 42.8 °F 37.5 °F 26.6 °F 53% 29.94 in 10.0 mi NW 9.2 mph - N/A   Overcast
5:55 PM 42.8 °F 38.6 °F 28.4 °F 57% 29.95 in 10.0 mi NW 6.9 mph - N/A   Overcast
6:15 PM 41.0 °F 38.0 °F 30.2 °F 65% 29.94 in 10.0 mi WSW 4.6 mph - N/A   Overcast
6:35 PM 39.2 °F 35.0 °F 30.2 °F 70% 29.95 in 10.0 mi West 5.8 mph - N/A   Mostly Cloudy
6:55 PM 41.0 °F 37.1 °F 30.2 °F 65% 29.95 in 10.0 mi West 5.8 mph - N/A   Overcast
7:15 PM 41.0 °F 35.2 °F 32.0 °F 70% 29.96 in 10.0 mi WNW 9.2 mph - N/A   Overcast
7:35 PM 41.0 °F 36.4 °F 32.0 °F 70% 29.96 in 10.0 mi WNW 6.9 mph - N/A   Overcast
7:55 PM 41.0 °F 35.8 °F 32.0 °F 70% 29.96 in 10.0 mi West 8.1 mph - N/A   Overcast
8:15 PM 41.0 °F 35.8 °F 32.0 °F 70% 29.96 in 10.0 mi West 8.1 mph - N/A   Overcast
8:35 PM 41.0 °F 36.4 °F 32.0 °F 70% 29.96 in 10.0 mi West 6.9 mph - N/A   Overcast
8:55 PM 41.0 °F 37.1 °F 32.0 °F 70% 29.96 in 10.0 mi WNW 5.8 mph - N/A   Overcast
9:15 PM 41.0 °F 35.8 °F 32.0 °F 70% 29.97 in 10.0 mi WNW 8.1 mph - N/A Rain Light Rain
9:35 PM 41.0 °F 35.2 °F 32.0 °F 70% 29.97 in 10.0 mi WNW 9.2 mph - N/A   Mostly Cloudy
9:55 PM 41.0 °F 36.4 °F 32.0 °F 70% 29.97 in 10.0 mi WNW 6.9 mph - N/A   Overcast
10:15 PM 39.2 °F 33.0 °F 32.0 °F 75% 29.97 in 10.0 mi WNW 9.2 mph - N/A   Overcast
10:35 PM 39.2 °F 32.5 °F 32.0 °F 75% 29.97 in 10.0 mi WNW 10.4 mph - N/A   Overcast
10:55 PM 39.2 °F 33.6 °F 32.0 °F 75% 29.96 in 10.0 mi West 8.1 mph - N/A   Overcast
11:15 PM 37.4 °F 32.1 °F 32.0 °F 81% 29.96 in 10.0 mi WNW 6.9 mph - N/A   Mostly Cloudy
11:35 PM 37.4 °F 32.1 °F 32.0 °F 81% 29.96 in 10.0 mi NW 6.9 mph - N/A   Overcast
11:55 PM 37.4 °F - 32.0 °F 81% 29.96 in 10.0 mi Calm Calm - N/A   Overcast